When you browse on this site, cookies collect data to enhance your experience and personalize the content and advertising you see.
Visit our Privacy Policy to learn more. By continuing to use the site, you agree to this use of cookies and data.

Stündliche Wetter Ondjiwa

Heute, 14 Juli, Dienstag

Zeit Temperatur Niederschläge Wind Luftdruck Luftfeuchtigkeit
00:00 +13°C° 0 mm 2 m/S 667 mmHg 19%
01:00 +12°C° 0 mm 2 m/S 667 mmHg 20%
02:00 +10°C° 0 mm 2 m/S 667 mmHg 19%
03:00 +9°C° 0 mm 2 m/S 667 mmHg 18%
04:00 +9°C° 0 mm 2 m/S 667 mmHg 17%
05:00 +8°C° 0 mm 2 m/S 667 mmHg 18%
06:00 +8°C° 0 mm 2 m/S 667 mmHg 18%
07:00 +8°C° 0 mm 2 m/S 668 mmHg 18%
08:00 +13°C° 0 mm 2 m/S 669 mmHg 15%
09:00 +18°C° 0 mm 2 m/S 670 mmHg 12%
10:00 +22°C° 0 mm 3 m/S 670 mmHg 9%
11:00 +26°C° 0 mm 3 m/S 670 mmHg 7%
12:00 +28°C° 0 mm 3 m/S 670 mmHg 6%
13:00 +30°C° 0 mm 3 m/S 670 mmHg 5%
14:00 +30°C° 0 mm 4 m/S 669 mmHg 5%
15:00 +30°C° 0 mm 4 m/S 669 mmHg 5%
16:00 +30°C° 0 mm 4 m/S 668 mmHg 5%
17:00 +26°C° 0 mm 3 m/S 668 mmHg 6%
18:00 +22°C° 0 mm 3 m/S 668 mmHg 8%
19:00 +18°C° 0 mm 3 m/S 668 mmHg 9%
20:00 +17°C° 0 mm 3 m/S 668 mmHg 10%
21:00 +16°C° 0 mm 3 m/S 668 mmHg 11%
22:00 +14°C° 0 mm 4 m/S 668 mmHg 12%
23:00 +13°C° 0 mm 4 m/S 668 mmHg 12%

Morgen, 15 Juli, Mittwoch

Zeit Temperatur Niederschläge Wind Luftdruck Luftfeuchtigkeit
00:00 +13°C° 0 mm 4 m/S 669 mmHg 13%
01:00 +12°C° 0 mm 4 m/S 669 mmHg 14%
02:00 +11°C° 0 mm 4 m/S 669 mmHg 15%
03:00 +11°C° 0 mm 4 m/S 668 mmHg 16%
04:00 +10°C° 0 mm 4 m/S 668 mmHg 17%
05:00 +8°C° 0 mm 4 m/S 669 mmHg 19%
06:00 +8°C° 0 mm 4 m/S 670 mmHg 20%
07:00 +7°C° 0 mm 4 m/S 670 mmHg 21%
08:00 +12°C° 0 mm 5 m/S 671 mmHg 19%
09:00 +16°C° 0 mm 6 m/S 672 mmHg 16%
10:00 +21°C° 0 mm 7 m/S 673 mmHg 14%
11:00 +23°C° 0 mm 6 m/S 673 mmHg 12%
12:00 +26°C° 0 mm 6 m/S 673 mmHg 10%
13:00 +28°C° 0 mm 5 m/S 672 mmHg 8%
14:00 +28°C° 0 mm 5 m/S 672 mmHg 8%
15:00 +28°C° 0 mm 5 m/S 671 mmHg 8%
16:00 +28°C° 0 mm 4 m/S 671 mmHg 8%
17:00 +25°C° 0 mm 4 m/S 670 mmHg 11%
18:00 +21°C° 0 mm 3 m/S 670 mmHg 14%
19:00 +17°C° 0 mm 3 m/S 670 mmHg 17%
20:00 +16°C° 0 mm 3 m/S 670 mmHg 18%
21:00 +14°C° 0 mm 4 m/S 670 mmHg 19%
22:00 +13°C° 0 mm 4 m/S 671 mmHg 20%
23:00 +13°C° 0 mm 4 m/S 671 mmHg 20%

übermorgen, 16 Juli, Donnerstag

Zeit Temperatur Niederschläge Wind Luftdruck Luftfeuchtigkeit
00:00 +13°C° 0 mm 4 m/S 671 mmHg 20%
01:00 +12°C° 0 mm 5 m/S 671 mmHg 21%
02:00 +11°C° 0 mm 4 m/S 671 mmHg 22%
03:00 +10°C° 0 mm 4 m/S 671 mmHg 24%
04:00 +8°C° 0 mm 4 m/S 671 mmHg 26%
05:00 +8°C° 0 mm 4 m/S 671 mmHg 26%
06:00 +8°C° 0 mm 4 m/S 672 mmHg 27%
07:00 +8°C° 0 mm 3 m/S 672 mmHg 27%
08:00 +12°C° 0 mm 5 m/S 673 mmHg 23%
09:00 +16°C° 0 mm 6 m/S 674 mmHg 18%
10:00 +21°C° 0 mm 7 m/S 674 mmHg 14%
11:00 +23°C° 0 mm 7 m/S 674 mmHg 13%
12:00 +24°C° 0 mm 7 m/S 673 mmHg 13%
13:00 +27°C° 0 mm 6 m/S 673 mmHg 12%
14:00 +28°C° 0 mm 6 m/S 672 mmHg 12%
15:00 +28°C° 0 mm 6 m/S 672 mmHg 12%
16:00 +28°C° 0 mm 5 m/S 671 mmHg 12%
17:00 +25°C° 0 mm 5 m/S 671 mmHg 16%
18:00 +21°C° 0 mm 4 m/S 671 mmHg 20%
19:00 +18°C° 0 mm 3 m/S 670 mmHg 25%
20:00 +17°C° 0 mm 3 m/S 671 mmHg 27%
21:00 +16°C° 0 mm 3 m/S 671 mmHg 29%
22:00 +14°C° 0 mm 4 m/S 671 mmHg 31%
23:00 +14°C° 0 mm 4 m/S 671 mmHg 33%

17 Juli, Freitag

Zeit Temperatur Niederschläge Wind Luftdruck Luftfeuchtigkeit
00:00 +13°C° 0 mm 4 m/S 671 mmHg 35%
01:00 +12°C° 0 mm 4 m/S 671 mmHg 37%
02:00 +11°C° 0 mm 4 m/S 671 mmHg 40%
03:00 +11°C° 0 mm 4 m/S 670 mmHg 43%
04:00 +10°C° 0 mm 4 m/S 670 mmHg 45%
05:00 +10°C° 0 mm 4 m/S 671 mmHg 48%
06:00 +10°C° 0 mm 4 m/S 671 mmHg 50%
07:00 +8°C° 0 mm 4 m/S 672 mmHg 53%
08:00 +13°C° 0 mm 5 m/S 673 mmHg 45%
09:00 +16°C° 0 mm 6 m/S 673 mmHg 36%
10:00 +20°C° 0 mm 7 m/S 674 mmHg 28%
11:00 +22°C° 0 mm 6 m/S 673 mmHg 24%
12:00 +24°C° 0 mm 6 m/S 673 mmHg 21%
13:00 +26°C° 0 mm 5 m/S 672 mmHg 17%
14:00 +27°C° 0 mm 5 m/S 672 mmHg 16%
15:00 +27°C° 0 mm 4 m/S 671 mmHg 15%
16:00 +27°C° 0 mm 4 m/S 670 mmHg 15%
17:00 +23°C° 0 mm 4 m/S 670 mmHg 18%
18:00 +20°C° 0 mm 3 m/S 670 mmHg 21%
19:00 +17°C° 0 mm 3 m/S 670 mmHg 25%
20:00 +16°C° 0 mm 3 m/S 670 mmHg 27%
21:00 +13°C° 0 mm 3 m/S 670 mmHg 29%
22:00 +12°C° 0 mm 3 m/S 670 mmHg 31%
23:00 +12°C° 0 mm 3 m/S 670 mmHg 32%

18 Juli, Samstag

Zeit Temperatur Niederschläge Wind Luftdruck Luftfeuchtigkeit
00:00 +11°C° 0 mm 3 m/S 669 mmHg 34%
01:00 +10°C° 0 mm 3 m/S 669 mmHg 35%
02:00 +10°C° 0 mm 3 m/S 669 mmHg 37%
03:00 +9°C° 0 mm 3 m/S 669 mmHg 39%
04:00 +8°C° 0 mm 3 m/S 669 mmHg 40%
05:00 +8°C° 0 mm 3 m/S 669 mmHg 43%
06:00 +8°C° 0 mm 3 m/S 670 mmHg 45%
07:00 +7°C° 0 mm 3 m/S 671 mmHg 47%
08:00 +11°C° 0 mm 4 m/S 671 mmHg 39%
09:00 +15°C° 0 mm 5 m/S 672 mmHg 31%
10:00 +20°C° 0 mm 7 m/S 673 mmHg 23%
11:00 +22°C° 0 mm 6 m/S 672 mmHg 20%
12:00 +24°C° 0 mm 6 m/S 671 mmHg 17%
13:00 +26°C° 0 mm 5 m/S 671 mmHg 14%
14:00 +27°C° 0 mm 5 m/S 670 mmHg 14%
15:00 +27°C° 0 mm 5 m/S 670 mmHg 13%
16:00 +27°C° 0 mm 4 m/S 669 mmHg 12%
17:00 +23°C° 0 mm 4 m/S 669 mmHg 15%
18:00 +20°C° 0 mm 3 m/S 669 mmHg 18%
19:00 +17°C° 0 mm 2 m/S 669 mmHg 22%
20:00 +16°C° 0 mm 3 m/S 669 mmHg 23%
21:00 +14°C° 0 mm 3 m/S 669 mmHg 25%
22:00 +13°C° 0 mm 3 m/S 669 mmHg 26%
23:00 +12°C° 0 mm 3 m/S 669 mmHg 29%

19 Juli, Sonntag

Zeit Temperatur Niederschläge Wind Luftdruck Luftfeuchtigkeit
00:00 +11°C° 0 mm 3 m/S 669 mmHg 31%
01:00 +11°C° 0 mm 3 m/S 669 mmHg 33%
02:00 +10°C° 0 mm 3 m/S 668 mmHg 36%
03:00 +9°C° 0 mm 3 m/S 668 mmHg 38%
04:00 +8°C° 0 mm 3 m/S 668 mmHg 41%
05:00 +8°C° 0 mm 3 m/S 668 mmHg 43%
06:00 +8°C° 0 mm 3 m/S 669 mmHg 45%
07:00 +7°C° 0 mm 3 m/S 669 mmHg 46%
08:00 +12°C° 0 mm 4 m/S 670 mmHg 38%
09:00 +16°C° 0 mm 5 m/S 671 mmHg 30%
10:00 +21°C° 0 mm 6 m/S 672 mmHg 21%
11:00 +23°C° 0 mm 5 m/S 671 mmHg 19%
12:00 +26°C° 0 mm 5 m/S 671 mmHg 17%
13:00 +28°C° 0 mm 5 m/S 670 mmHg 15%
14:00 +28°C° 0 mm 4 m/S 670 mmHg 14%
15:00 +28°C° 0 mm 4 m/S 669 mmHg 14%
16:00 +28°C° 0 mm 4 m/S 669 mmHg 13%
17:00 +25°C° 0 mm 3 m/S 669 mmHg 17%
18:00 +21°C° 0 mm 3 m/S 668 mmHg 20%
19:00 +18°C° 0 mm 2 m/S 668 mmHg 24%
20:00 +17°C° 0 mm 2 m/S 668 mmHg 26%
21:00 +16°C° 0 mm 2 m/S 668 mmHg 28%
22:00 +15°C° 0 mm 2 m/S 668 mmHg 30%
23:00 +13°C° 0 mm 3 m/S 668 mmHg 31%
Mehr zeigen